Location: Cahas Mountain Overlook
(37.0833°N, 80.1000°W)
Time: 07:45:36
(UTC-04:00)

Tiros 1 - Pass Details

Date: 15 February 2026
Orbit: 618 x 650 km, 48.4° (Epoch: 14 March)

Event Time Altitude Azimuth Distance (km) Brightness Sun altitude
Rises 08:46:27 0° 216° (SW) 2,903 10.5 17.0°
Reaches altitude 10° 08:48:51 10° 210° (SSW) 1,993 9.8 17.4°
Maximum altitude 08:53:12 44° 138° (SE) 866 9.1 18.2°
Drops below altitude 10° 08:57:31 10° 67° (ENE) 1,985 10.2 18.9°
Sets 08:59:54 0° 60° (ENE) 2,891 10.9 19.3°
